Simultaneous Nadir Overpasses (SNOs) Predictions

Prediction of SNOs between GOES-14 and NOAA-20 Satellite Orbit:

Table of predicted SNOs for the next 14.0 days since TLE Epoch: 8/23/2019
Index Date Time (GOES-14) GOES-14 Lat,Lon NOAA-20 Lat,Lon Distance(km) Time Diff (sec)
1 08/24/2019 20:10:17 -0.37,-104.51 0.42,-101.13 386.13 80
2 08/26/2019 08:32:02 0.38,-104.32 0.83,-106.38 234.68 80
3 08/27/2019 08:10:37 0.37,-104.30 -0.17,-101.85 279.27 80
4 08/28/2019 20:32:33 -0.37,-104.44 -0.96,-107.16 310.00 80
5 08/29/2019 20:16:27 -0.37,-104.43 0.04,-102.62 205.57 80
6 08/31/2019 08:38:13 0.37,-104.26 1.20,-107.87 412.61 80
7 09/01/2019 08:16:48 0.37,-104.24 0.14,-103.35 101.67 80
8 09/02/2019 20:38:44 -0.37,-104.35 -1.33,-108.65 489.90 80
9 09/03/2019 20:22:38 -0.37,-104.35 -0.32,-104.12 26.04 80
10 09/06/2019 08:25:39 0.36,-104.19 0.51,-104.84 74.93 80




NCC Satellite Simultaneous Nadir Overpasses (SNOs) Prediction Service
